Weather History for Bournemouth, United Kingdom

Change the Weather History Date:

Thursday, October 17, 2013

  Actual Average Record
Temperature  
Mean Temperature 58 °F -  
Max Temperature 66 °F 54 °F 66 °F (2001)
Min Temperature 51 °F 41 °F 28 °F (2010)
Degree Days  
Heating Degree Days 6    
Growing Degree Days 8 (Base 50)    
Moisture  
Dew Point 55 °F    
Average Humidity 85    
Maximum Humidity 100    
Minimum Humidity 62    
Precipitation  
Precipitation 0.00 in 0.11 in - ()
Sea Level Pressure  
Sea Level Pressure 29.96 in    
Wind  
Wind Speed 8 mph ()    
Max Wind Speed 15 mph    
Max Gust Speed -    
Visibility 5.7 miles    
Events Fog    
Averages and records for this station are not official NWS values.
T = Trace of Precipitation, MM = Missing Value Source: Averaged Metar Reports

Daily Weather History Graph

Daily Weather History Graph

Search for Another Location

Airport:

Trip Planner

Search our weather history database for the weather conditions in past years. The results will help you decide how hot, cold, wet, or windy it might be!

Date:

Astronomy

Oct. 17, 2013 Rise Set
Actual Time 7:33 AM BST 6:10 PM BST
Civil Twilight 7:00 AM BST 6:44 PM BST
Nautical Twilight 6:22 AM BST 7:22 PM BST
Astronomical Twilight 5:44 AM BST 8:00 PM BST
Moon 5:21 PM BST (10/17) 5:42 AM BST (10/17)
Length of Visible Light 11h 43m
Length of Day
10h 37m
Waxing Gibbous, 97% of the Moon is Illuminated
Oct 17
Waxing Gibbous
Oct 19
Full
Oct 27
Last Quarter
Nov 3
New
Nov 10
First Quarter

Hourly Weather History & Observations

Time (BST) Temp. Dew Point Humidity Pressure Visibility Wind Dir Wind Speed Gust Speed Precip Events Conditions
12:20 AM 57.2 °F 53.6 °F 88% 29.86 in - WSW 10.4 mph - N/A   Clear
12:50 AM 57 °F 54 °F 86% 29.88 in 6 mi WSW 10.4 mph - -   Light Haze
1:20 AM 57.2 °F 53.6 °F 88% 29.89 in - WSW 12.7 mph - N/A   Clear
3:50 AM 55 °F 53 °F 89% 29.90 in 6 mi WSW 6.9 mph - -   Light Haze
4:20 AM 55.4 °F 53.6 °F 94% 29.89 in - WSW 6.9 mph - N/A   Clear
4:50 AM 57.2 °F 55.4 °F 94% 29.89 in - WSW 8.1 mph - N/A   Clear
5:20 AM 57.2 °F 55.4 °F 94% 29.89 in 5.6 mi WSW 9.2 mph - N/A   Partly Cloudy
5:50 AM 59.0 °F 55.4 °F 88% 29.89 in 5.6 mi WSW 11.5 mph - N/A   Partly Cloudy
6:50 AM 59 °F 56 °F 86% 29.91 in 5 mi West 10.4 mph - -   Light Haze
6:50 AM 59.0 °F 55.4 °F 88% 29.89 in 5.0 mi West 10.4 mph - N/A   Mostly Cloudy
7:20 AM 59.0 °F 57.2 °F 94% 29.89 in 5.0 mi West 10.4 mph - N/A   Mostly Cloudy
7:50 AM 57.2 °F 55.4 °F 94% 29.92 in 5.6 mi West 5.8 mph - N/A   Scattered Clouds
8:20 AM 57.2 °F 55.4 °F 94% 29.92 in 6.2 mi WSW 5.8 mph - N/A   Partly Cloudy
8:50 AM 57.2 °F 55.4 °F 94% 29.92 in 6.2 mi SW 5.8 mph - N/A   Partly Cloudy
9:20 AM 59.0 °F 57.2 °F 94% 29.95 in 6.2 mi WSW 8.1 mph - N/A   Partly Cloudy
9:50 AM 61 °F 57 °F 82% 29.96 in 6 mi WSW 9.2 mph - -   Light Haze
9:50 AM 60.8 °F 57.2 °F 88% 29.95 in 6.2 mi WSW 9.2 mph - N/A   Partly Cloudy
10:20 AM 60.8 °F 55.4 °F 82% 29.95 in 6.2 mi West 12.7 mph - N/A   Scattered Clouds
10:50 AM 62.6 °F 57.2 °F 82% 29.95 in 6.2 mi West 11.5 mph - N/A   Partly Cloudy
11:20 AM 64.4 °F 55.4 °F 73% 29.95 in 6.2 mi West 12.7 mph - N/A   Scattered Clouds
11:50 AM 64.4 °F 55.4 °F 73% 29.95 in 6.2 mi West 12.7 mph - N/A   Scattered Clouds
12:20 PM 66.2 °F 53.6 °F 64% 29.98 in 6.2 mi West 15.0 mph - N/A   Scattered Clouds
12:50 PM 65 °F 55 °F 62% 29.99 in 13 mi West 11.5 mph - -   Scattered Clouds
12:50 PM 64.4 °F 55.4 °F 73% 29.98 in 6.2 mi West 11.5 mph - N/A   Partly Cloudy
1:20 PM 64.4 °F 55.4 °F 73% 29.98 in 6.2 mi West 11.5 mph - N/A   Scattered Clouds
1:50 PM 62.6 °F 53.6 °F 72% 29.98 in 6.2 mi West 10.4 mph - N/A   Partly Cloudy
2:20 PM 66.2 °F 53.6 °F 64% 29.98 in 6.2 mi West 13.8 mph - N/A   Partly Cloudy
2:50 PM 66.2 °F 53.6 °F 64% 29.98 in 6.2 mi West 11.5 mph - N/A   Partly Cloudy
3:20 PM 64.4 °F 53.6 °F 68% 29.98 in 6.2 mi WSW 12.7 mph - N/A   Partly Cloudy
3:50 PM 65 °F 55 °F 62% 29.99 in 8 mi WSW 11.5 mph - -   Scattered Clouds
3:50 PM 64.4 °F 55.4 °F 73% 29.98 in 6.2 mi WSW 11.5 mph - N/A   Partly Cloudy
4:20 PM 64.4 °F 55.4 °F 73% 29.98 in 6.2 mi WSW 10.4 mph - N/A   Partly Cloudy
4:50 PM 62.6 °F 55.4 °F 77% 29.98 in 6.2 mi SW 10.4 mph - N/A   Partly Cloudy
5:20 PM 60.8 °F 55.4 °F 82% 29.98 in 6.2 mi WSW 9.2 mph - N/A   Partly Cloudy
5:50 PM 59.0 °F 55.4 °F 88% 29.98 in 5.0 mi WSW 6.9 mph - N/A   Partly Cloudy
6:20 PM 59.0 °F 55.4 °F 88% 29.98 in 5.0 mi WSW 9.2 mph - N/A   Partly Cloudy
6:50 PM 57 °F 55 °F 92% 30.00 in 5 mi WSW 4.6 mph - -   Light Haze
6:50 PM 57.2 °F 55.4 °F 94% 29.98 in 5.0 mi WSW 4.6 mph - N/A   Unknown
7:20 PM 57.2 °F 55.4 °F 94% 30.01 in 4.3 mi SW 5.8 mph - N/A   Unknown
7:50 PM 55.4 °F 53.6 °F 94% 30.01 in 4.3 mi WSW 5.8 mph - N/A   Partly Cloudy
8:20 PM 57.2 °F 55.4 °F 94% 30.01 in 4.3 mi WSW 4.6 mph - N/A   Scattered Clouds
8:50 PM 57.2 °F 55.4 °F 94% 30.01 in 3.7 mi SSW 2.3 mph - N/A Fog Fog
9:20 PM 55.4 °F 53.6 °F 94% 30.01 in 4.3 mi SSW 4.6 mph - N/A Fog Shallow Fog
9:50 PM 54 °F 52 °F 91% 30.01 in 4 mi SSW 4.6 mph - -   Mist
9:50 PM 53.6 °F 51.8 °F 94% 30.01 in 4.3 mi SSW 4.6 mph - N/A Fog Shallow Fog
10:20 PM 51.8 °F 51.8 °F 100% 30.01 in 3.7 mi East 4.6 mph - N/A Fog Shallow Fog
10:50 PM 53.6 °F 51.8 °F 94% 30.01 in 3.7 mi East 4.6 mph - N/A Fog Shallow Fog
11:20 PM 51.8 °F 50.0 °F 94% 30.01 in 4.3 mi Variable 3.5 mph - N/A Fog Fog